Back to catalog

COSMOS 397 DEB *

AliveLEO
NORAD 5416·DEBRIS·🇷🇺 Russia

Launched Feb 25, 1971 from Baikonur Cosmodrome

Loading…

Next Passes (next 24 hours)

TLE

FreshSource: Space-Track

Epoch: Sep 13, 2026, 02:57 UTC

1 05416U 71015BN  26256.12326701  .00000605  00000-0  63828-3 0  9994
2 05416  65.7837 135.6250 0073522 272.6194 241.4363 13.80917333304969

Track COSMOS 397 DEB * in real time with AllMySat

Download on the App Store